User: anonymous   Login
Location: Iesi
(43.5167°N, 13.2333°E)
Time: 01:04:11
(UTC+00:00)
Language:

ERS-1 Rocket - Orbit

View from above orbital plane
View from above orbital plane
View from above satellite
View from above satellite

Ground track
Ground track

The orbit data is extracted from the following two-line orbital elements,

1 21610U 91050F   20292.81244745 +.00000023 +00000-0 +20862-4 0  9992
2 21610 098.4540 000.7487 0002242 236.5386 232.2151 14.40916887535468
Epoch (UTC): 18 October 2020 19:29:55
Eccentricity: 0.0002242
inclination: 98.4540°
perigee height: 754 km
apogee height: 757 km
right ascension of ascending node: 0.7487°
argument of perigee: 236.5386°
revolutions per day: 14.40916887
mean anomaly at epoch: 232.2151°
orbit number at epoch: 53546

The dashed part of the orbit path shows where the satellite is in the earth's shadow,  

DLR